Skip Page Navigation
NASA JPL Caltech
NASA Logo - Jet Propulsion Laboratory + View the NASA Portal
+ Near-Earth Object (NEO) Program
Search JPL
JPL Home Earth Solar System Stars & Galaxies Technology
JPL Solar System Dynamics
BODIES ORBITS EPHEMERIDES TOOLS PHYSICAL DATA DISCOVERY FAQ SITE MAP
JPL Small-Body Database Browser
Search: [ help ]  
(2002 AT4)
Classification: Amor [NEO, PHA]          SPK-ID: 3102743
Ephemeris | Orbit Diagram | Orbital Elements | Physical Parameters | Close-Approach Data ]

[ hide orbit diagram ]
Orbit Diagram
Note: Make sure you have Java enabled on your browser to see the applet. This applet is provided as a 3D orbit visualization tool. The applet was implemented using 2-body methods, and hence should not be used for determining accurate long-term trajectories (over several years or decades) or planetary encounter circumstances. For accurate long-term ephemerides, please instead use our Horizons system.
Orbit Viewer

Additional Notes: the orbits shown in the applet are color coded. The planets are white lines, and the asteroid/comet is a blue line. The bright white line indicates the portion of the orbit that is above the ecliptic plane, and the darker portion is below the ecliptic plane. Likewise for the asteroid/comet orbit, the light blue indicates the portion above the ecliptic plane, and the dark blue the portion below the ecliptic plane.

Orbit Viewer applet originally written and kindly provided by Osamu Ajiki (AstroArts), and further modified by Ron Baalke (JPL).


Orbital Elements at Epoch 2456400.5 (2013-Apr-18.0) TDB
Reference: JPL 7 (heliocentric ecliptic J2000)
 Element Value Uncertainty (1-sigma)   Units 
e .446252983431119 3.9076e-08  
a 1.86695110190402 1.0713e-07 AU
q 1.033818602759336 5.1638e-08 AU
i 1.500598656473586 4.707e-06 deg
node 323.5074316063219 7.1756e-05 deg
peri 203.0220568474869 7.364e-05 deg
M 130.3442089416185 0.00013706 deg
tp 2456063.145054026385
(2012-May-15.64505403)
0.00032573 JED
period 931.7466540066856
2.55
8.0201e-05
2.196e-07
d
yr
n .3863711218622921 3.3257e-08 deg/d
Q 2.700083601048704 1.5494e-07 AU
  Orbit Determination Parameters
   # obs. used (total)      204  
   data-arc span      1805 days (4.94 yr)  
   first obs. used      2001-12-18  
   last obs. used      2006-11-27  
   planetary ephem.      DE405  
   SB-pert. ephem.      SB405-CPV-2  
   condition code      0  
   fit RMS      .60226  
   data source      ORB  
   producer      Otto Matic  
   solution date      2011-Sep-14 19:44:14  

Additional Information
 Earth MOID = .042369 AU 
 T_jup = 3.859 
[ show covariance matrix ]

Ephemeris | Orbit Diagram | Orbital Elements | Physical Parameters | Close-Approach Data ]

Physical Parameter Table
Parameter Symbol Value Units Sigma Reference Notes
absolute magnitude H 20.892 mag .95565 7 autocmod 2.5a
SMASSII spectral type spec_B D   n/a Binzel et al. (2004) Meteorit. Planet. Sci. 39, 351-366  

[ show close-approach data ]
Ephemeris | Orbit Diagram | Orbital Elements | Physical Parameters | Close-Approach Data ]
ABOUT SSD CREDITS/AWARDS PRIVACY/COPYRIGHT GLOSSARY LINKS
FirstGov 2013-May-22 12:01 UT
(server date/time)  
NASA Home Page
Site Manager:   Donald K. Yeomans
Webmaster  Alan B. Chamberlin